• Join FlightAware (Why Join?)
  • Login
  • US Flag 
01:43PM EST


 

Airport Tracker/Info


-or-


 

Live Flight TrackerFlight Track Log ✈ EJA831 ✈ 21-Jul-2013 ✈ KPHL - KHYA

Flight Track Log - Related Links

Times and Time Zones

All times are in EDT time to prevent confusion due to time zone crossing. See the EJA831 flight status page for this flight to view local times or setup timezone preferences in your user account.

Time Position Orientation Groundspeed Altitude Reporting Facility
EDT Latitude Longitude Course Direction KTS MPH feet Rate Location/Type
08:43AM 39.8667 -75.2667 218° Southwest 201 231 1,100  Level Philadelphia TRACON
08:44AM 39.8333 -75.3000 218° Southwest 214 246 4,000 3,294 Climbing Philadelphia TRACON
08:45AM 39.7667 -75.3333 201° Southwest 296 341 6,700 2,727 Climbing Philadelphia TRACON
08:47AM 39.6986 -75.1500 116° Southeast 323 372 12,000 1,817 Climbing New York Center
08:48AM 39.7283 -75.0222 73° East 339 390 12,000  Level New York Center
08:49AM 39.7581 -74.8917 73° East 368 423 12,000 1,008 Level New York Center
08:50AM 39.7878 -74.7528 74° East 363 418 14,000 1,140 Climbing New York Center
08:51AM 39.8003 -74.6292 82° East 374 430 14,300 984 Climbing New York Center
08:52AM 39.8172 -74.4925 81° East 379 436 16,000 1,082 Climbing New York Center
08:53AM 39.8553 -74.3431 72° East 389 448 16,500 1,882 Climbing New York Center
08:55AM 39.9939 -74.0814 55° Northeast 383 441 22,400 2,424 Climbing Boston Center
08:56AM 40.0519 -73.9661 57° Northeast 378 435 24,700 1,300 Climbing Boston Center
08:57AM 40.1158 -73.8483 55° Northeast 383 441 25,000 150 Climbing Boston Center
08:58AM 40.1864 -73.7167 55° Northeast 412 474 25,000  Level Boston Center
08:59AM 40.2544 -73.5739 58° Northeast 443 510 25,000  Level Boston Center
09:00AM 40.3058 -73.4222 66° East 449 517 25,000  Level Boston Center
09:01AM 40.3531 -73.2733 67° East 449 517 25,000  Level Boston Center
09:02AM 40.4039 -73.1242 66° East 449 517 25,000  Level Boston Center
09:03AM 40.4506 -72.9744 68° East 444 511 25,000  Level Boston Center
09:04AM 40.5014 -72.8250 66° East 444 511 25,000  Level Boston Center
09:05AM 40.5517 -72.6750 66° East 444 511 25,000  Level Boston Center
09:06AM 40.5622 -72.5083 85° East 438 504 25,000  Level Boston Center
09:07AM 40.5622 -72.3417 90° East 444 511 25,000  Level Boston Center
09:08AM 40.5744 -72.1778 84° East 444 511 25,000  Level Boston Center
09:09AM 40.5844 -72.0167 85° East 444 511 25,000 -950 Level Boston Center
09:10AM 40.5919 -71.8525 87° East 439 505 23,100 -1,900 Descending Boston Center
09:11AM 40.5994 -71.6939 86° East 439 505 21,200 -1,550 Descending Boston Center
09:12AM 40.6108 -71.5381 84° East 439 505 20,000 -750 Descending Boston Center
09:13AM 40.6178 -71.3819 87° East 439 505 19,700 -1,050 Descending Boston Center
09:14AM 40.6497 -71.2475 73° East 402 463 17,900 -1,750 Descending Boston Center
09:15AM 40.7089 -71.1286 57° Northeast 386 444 16,200 -1,700 Descending Boston Center
09:16AM 40.7894 -71.0611 32° Northeast 348 400 14,500 -1,700 Descending Boston Center
09:17AM 40.8739 -70.9908 32° Northeast 343 395 12,800 -1,700 Descending Boston Center
09:18AM 40.9564 -70.9175 34° Northeast 348 400 11,100 -1,800 Descending Boston Center
09:19AM 41.0469 -70.8519 29° Northeast 340 391 9,200 -1,800 Descending Boston Center
09:20AM 41.1150 -70.7897 35° Northeast 318 366 7,500 -1,700 Descending Boston Center
09:21AM 41.1828 -70.7275 35° Northeast 298 343 5,800 -1,250 Descending Boston Center
09:22AM 41.2319 -70.6792 36° Northeast 293 337 5,000 -400 Descending Boston Center
09:23AM 41.3061 -70.6136 34° Northeast 275 316 5,000 -100 Level Boston Center
09:24AM 41.3697 -70.5536 35° Northeast 275 316 4,800 -850 Descending Boston Center
09:25AM 41.4356 -70.4992 32° Northeast 275 316 3,300 -900 Descending Boston Center
09:26AM 41.4969 -70.4417 35° Northeast 275 316 3,000 -250 Descending Boston Center
09:27AM 41.5500 -70.3819 40° Northeast 262 302 2,800 -700 Descending Boston Center
09:28AM 41.5947 -70.3194 46° Northeast 242 278 1,600 -850 Descending Boston Center
09:29AM 41.6272 -70.2739 46° Northeast 206 237 1,100 -700 Descending Boston Center
09:30AM 41.6544 -70.2728 North 128 147 200 4,950 Descending Boston Center
09:31AM 41.6792 -70.2608 20° North 108 124 11,000 10,800 Climbing Boston Center